EA7JCM-13 Weather Reports


time (UTC)temp
C
wind
direction
speed
KPH
gust
KPH
rain 1hr
cm
rain 24hr
cm
rain mn
cm
humidity
%
barometer
mb
20260507150504 21 110 3.2 17.7 0.00 0.00 0.00 42 1005.9
20260507150002 21 97 3.2 17.7 0.00 0.00 0.00 42 1006.0
20260507145503 21 123 6.4 12.9 0.00 0.00 0.00 41 1006.1
20260507145003 21 139 3.2 12.9 0.00 0.00 0.00 40 1005.9
20260507144502 20 168 8.0 14.5 0.00 0.00 0.00 42 1006.0
20260507144003 20 185 6.4 14.5 0.00 0.00 0.00 45 1006.1
20260507143503 19 182 9.7 17.7 0.00 0.00 0.00 45 1006.2
20260507143003 20 176 6.4 17.7 0.00 0.00 0.00 45 1006.2
20260507142503 20 169 6.4 17.7 0.00 0.00 0.00 45 1006.3
20260507142003 19 136 4.8 12.9 0.00 0.00 0.00 46 1006.6
20260507141502 19 142 3.2 12.9 0.00 0.00 0.00 45 1006.6
20260507141004 19 196 4.8 12.9 0.00 0.00 0.00 45 1006.6
20260507140503 19 198 4.8 17.7 0.00 0.00 0.00 45 1006.5
20260507140003 20 170 3.2 17.7 0.00 0.00 0.00 43 1006.4
20260507135503 20 118 11.3 17.7 0.00 0.00 0.00 43 1006.5
20260507135004 20 132 4.8 14.5 0.00 0.00 0.00 44 1006.6
20260507134502 20 169 4.8 14.5 0.00 0.00 0.00 42 1006.7
20260507134003 20 164 6.4 17.7 0.00 0.00 0.00 44 1006.8
20260507133503 20 185 0.0 17.7 0.00 0.00 0.00 45 1006.9
20260507133002 20 191 8.0 17.7 0.00 0.00 0.00 46 1006.7
20260507132503 20 188 8.0 17.7 0.00 0.00 0.00 46 1006.6
20260507132003 20 199 3.2 17.7 0.00 0.00 0.00 45 1006.8
20260507131503 19 196 4.8 17.7 0.00 0.00 0.00 48 1006.5
20260507131003 18 202 6.4 17.7 0.00 0.00 0.00 48 1006.5
20260507130502 18 209 12.9 17.7 0.00 0.00 0.00 47 1006.6
20260507130004 18 199 11.3 17.7 0.00 0.00 0.00 47 1006.7
20260507125502 18 201 11.3 14.5 0.00 0.00 0.00 46 1006.7
20260507125003 18 235 6.4 11.3 0.00 0.00 0.00 45 1006.7
20260507124503 19 259 3.2 9.7 0.00 0.00 0.00 44 1006.8
20260507124003 19 275 3.2 9.7 0.00 0.00 0.00 42 1006.7
20260507123503 20 317 3.2 6.4 0.00 0.00 0.00 41 1006.9
20260507123002 20 299 1.6 6.4 0.00 0.00 0.00 43 1006.8
20260507122503 20 236 1.6 6.4 0.00 0.00 0.00 43 1007.0
20260507122003 19 233 3.2 6.4 0.00 0.00 0.00 43 1006.9
20260507121503 19 238 3.2 11.3 0.00 0.00 0.00 43 1007.0
20260507121004 19 226 3.2 11.3 0.00 0.00 0.00 43 1007.0
20260507120503 20 238 3.2 6.4 0.00 0.00 0.00 42 1007.0
20260507120002 20 260 3.2 11.3 0.00 0.00 0.00 41 1007.3
20260507115503 19 228 6.4 11.3 0.00 0.00 0.00 41 1007.4
20260507115003 19 189 6.4 11.3 0.00 0.00 0.00 42 1007.4
20260507114503 20 1 6.4 9.7 0.00 0.00 0.00 41 1007.4
20260507114003 21 319 3.2 6.4 0.00 0.00 0.00 41 1007.2
20260507113503 20 356 1.6 6.4 0.00 0.00 0.00 40 1007.3
20260507113002 22 335 1.6 6.4 0.00 0.00 0.00 39 1007.5
20260507112502 20 277 3.2 11.3 0.00 0.00 0.00 41 1007.4
20260507112003 19 264 1.6 11.3 0.00 0.00 0.00 43 1007.6
20260507111504 20 258 3.2 14.5 0.00 0.00 0.00 43 1007.7
20260507111003 19 255 6.4 14.5 0.00 0.00 0.00 43 1007.9
20260507110503 19 252 8.0 14.5 0.00 0.00 0.00 43 1007.6
20260507110003 19 236 6.4 11.3 0.00 0.00 0.00 42 1007.7
20260507105503 19 245 3.2 11.3 0.00 0.00 0.00 43 1007.7
20260507105002 19 251 0.0 11.3 0.00 0.00 0.00 42 1007.4
20260507104503 18 241 1.6 12.9 0.00 0.00 0.00 42 1007.7
20260507104004 18 233 6.4 12.9 0.00 0.00 0.00 43 1007.8
20260507103503 18 205 3.2 9.7 0.00 0.00 0.00 44 1007.7
20260507103003 18 220 6.4 9.7 0.00 0.00 0.00 45 1007.8
20260507102502 18 257 1.6 9.7 0.00 0.00 0.00 44 1007.9
20260507102003 18 253 3.2 6.4 0.00 0.00 0.00 44 1008.0
20260507101503 17 259 3.2 6.4 0.00 0.00 0.00 45 1008.0
20260507101003 18 264 4.8 6.4 0.00 0.00 0.00 45 1008.0
20260507100503 18 260 3.2 6.4 0.00 0.00 0.00 44 1008.0
20260507100003 18 270 1.6 9.7 0.00 0.00 0.00 43 1007.9
20260507095503 17 266 1.6 9.7 0.00 0.00 0.00 45 1007.9
20260507095002 17 261 4.8 6.4 0.00 0.00 0.00 46 1007.9
20260507094503 17 256 1.6 11.3 0.00 0.00 0.00 44 1008.1
20260507094003 17 260 3.2 11.3 0.00 0.00 0.00 46 1008.0
20260507093503 17 244 4.8 9.7 0.00 0.00 0.00 46 1008.1
20260507093003 17 213 4.8 9.7 0.00 0.00 0.00 48 1008.1
20260507092503 17 203 6.4 9.7 0.00 0.00 0.00 49 1008.1
20260507092003 17 193 4.8 6.4 0.00 0.00 0.00 48 1008.1
20260507091503 17 242 3.2 6.4 0.00 0.00 0.00 48 1007.9
20260507091003 18 253 0.0 6.4 0.00 0.00 0.00 51 1007.8
20260507090502 17 248 1.6 9.7 0.00 0.00 0.00 53 1008.0
20260507090005 16 247 1.6 9.7 0.00 0.00 0.00 54 1008.2
20260507085503 16 242 6.4 6.4 0.00 0.00 0.00 55 1007.9
20260507085003 16 219 1.6 3.2 0.00 0.00 0.00 54 1007.8
20260507084503 16 160 1.6 3.2 0.00 0.00 0.00 53 1008.0
20260507084004 16 176 1.6 3.2 0.00 0.00 0.00 53 1008.2
20260507083502 16 208 0.0 3.2 0.00 0.00 0.00 53 1008.2
20260507083003 15 188 1.6 3.2 0.00 0.00 0.00 56 1008.3
20260507082503 15 177 1.6 3.2 0.00 0.00 0.00 58 1008.2
20260507082003 13 181 0.0 3.2 0.00 0.00 0.00 59 1008.2
20260507081503 14 195 3.2 6.4 0.00 0.00 0.00 59 1008.3
20260507081003 13 202 3.2 6.4 0.00 0.00 0.00 60 1008.3
20260507080504 13 232 3.2 6.4 0.00 0.00 0.00 60 1008.3
20260507080004 13 241 3.2 6.4 0.00 0.00 0.00 60 1008.3
20260507075505 13 209 3.2 3.2 0.00 0.00 0.00 60 1008.2
20260507075003 13 190 3.2 3.2 0.00 0.00 0.00 61 1008.2
20260507074503 13 181 0.0 3.2 0.00 0.00 0.00 61 1008.3
20260507074003 13 174 0.0 3.2 0.00 0.00 0.00 62 1008.2
20260507073504 13 165 1.6 3.2 0.00 0.00 0.00 61 1008.2
20260507073003 13 158 0.0 3.2 0.00 0.00 0.00 61 1008.1
20260507072504 13 151 0.0 3.2 0.00 0.00 0.00 62 1008.3
20260507072003 13 149 0.0 3.2 0.00 0.00 0.00 62 1008.2
20260507071504 13 154 0.0 3.2 0.00 0.00 0.00 62 1008.1
20260507071003 13 158 3.2 3.2 0.00 0.00 0.00 62 1008.0
20260507070503 13 153 1.6 3.2 0.00 0.00 0.00 63 1007.9
20260507070005 13 132 0.0 3.2 0.00 0.00 0.00 63 1007.9
20260507065503 12 116 0.0 3.2 0.00 0.00 0.00 65 1007.9
20260507065004 12 112 0.0 3.2 0.00 0.00 0.00 67 1007.9
20260507064503 12 114 1.6 3.2 0.00 0.00 0.00 67 1007.8
20260507064003 12 126 0.0 3.2 0.00 0.00 0.00 68 1007.7
20260507063503 12 115 0.0 3.2 0.00 0.00 0.00 70 1007.8
20260507063003 11 111 0.0 3.2 0.00 0.00 0.00 72 1007.6
20260507062503 11 113 1.6 3.2 0.00 0.00 0.00 72 1007.8
20260507062003 11 128 0.0 3.2 0.00 0.00 0.00 72 1007.3
20260507061504 11 121 0.0 3.2 0.00 0.00 0.00 72 1007.4
20260507061004 11 111 1.6 3.2 0.00 0.00 0.00 72 1007.5
20260507060503 11 111 1.6 3.2 0.00 0.00 0.00 72 1007.3
20260507060003 11 105 3.2 6.4 0.00 0.00 0.00 73 1007.3
20260507055503 10 102 3.2 6.4 0.00 0.00 0.00 74 1007.2
20260507055003 10 105 1.6 3.2 0.00 0.00 0.00 73 1007.3
20260507054504 11 109 1.6 6.4 0.00 0.00 0.00 73 1007.3
20260507054004 10 108 1.6 6.4 0.00 0.00 0.00 73 1007.0
20260507053503 10 101 1.6 3.2 0.00 0.00 0.00 73 1007.1
20260507053004 10 103 1.6 6.4 0.00 0.00 0.00 74 1006.9
20260507052503 10 106 3.2 6.4 0.00 0.00 0.00 74 1007.1
20260507052003 10 116 3.2 6.4 0.00 0.00 0.00 74 1007.1
20260507051503 11 130 1.6 3.2 0.00 0.00 0.00 72 1007.2
20260507051003 11 120 0.0 3.2 0.00 0.00 0.00 71 1006.9
20260507050503 11 119 0.0 3.2 0.00 0.00 0.00 70 1007.0
20260507050004 11 109 0.0 6.4 0.00 0.00 0.00 70 1006.9
20260507045504 11 94 1.6 6.4 0.00 0.00 0.00 70 1006.9
20260507045003 11 101 1.6 6.4 0.00 0.00 0.00 70 1006.9
20260507044503 11 114 0.0 6.4 0.00 0.00 0.00 69 1006.8
20260507044004 12 112 1.6 6.4 0.00 0.00 0.00 69 1006.7
20260507043503 12 120 1.6 3.2 0.00 0.00 0.00 69 1006.5
20260507043003 12 119 1.6 3.2 0.00 0.00 0.00 70 1006.5
20260507042504 12 133 1.6 3.2 0.00 0.00 0.00 70 1006.4
20260507042003 12 167 1.6 6.4 0.00 0.00 0.00 70 1006.7
20260507041503 12 191 1.6 6.4 0.00 0.00 0.00 70 1006.5
20260507041003 12 195 3.2 6.4 0.00 0.00 0.00 70 1006.4
20260507040503 12 174 3.2 6.4 0.00 0.00 0.00 70 1006.5
20260507040004 12 148 3.2 3.2 0.00 0.00 0.00 70 1006.7
20260507035504 12 166 0.0 3.2 0.00 0.00 0.00 69 1006.7
20260507035003 12 168 1.6 3.2 0.00 0.00 0.00 68 1006.5
20260507034504 12 181 3.2 6.4 0.00 0.00 0.00 68 1006.6
20260507034003 12 183 3.2 6.4 0.00 0.00 0.00 68 1006.4
20260507033504 12 176 3.2 6.4 0.00 0.00 0.00 67 1006.5
20260507033003 12 174 3.2 6.4 0.00 0.00 0.00 67 1006.6
20260507032504 12 163 1.6 6.4 0.00 0.00 0.00 67 1006.5
20260507032004 12 166 3.2 3.2 0.00 0.00 0.00 66 1006.4
20260507031503 12 178 1.6 3.2 0.00 0.00 0.00 66 1006.5
20260507031003 12 181 1.6 3.2 0.00 0.00 0.00 65 1006.2
20260507030503 13 126 0.0 3.2 0.00 0.00 0.00 64 1006.5
20260507030003 13 112 0.0 3.2 0.00 0.00 0.00 63 1006.6
20260507025504 13 112 3.2 6.4 0.00 0.00 0.00 62 1006.5
20260507025004 13 111 0.0 6.4 0.00 0.00 0.00 61 1006.5
20260507024503 13 124 3.2 6.4 0.00 0.00 0.00 61 1006.6
20260507024003 13 138 0.0 3.2 0.00 0.00 0.00 61 1006.6
20260507023504 13 120 0.0 3.2 0.00 0.00 0.00 60 1006.5
20260507023003 13 106 0.0 6.4 0.00 0.00 0.00 60 1006.7
20260507022503 13 124 1.6 6.4 0.00 0.00 0.00 60 1006.6
20260507022003 14 146 3.2 6.4 0.00 0.00 0.00 59 1006.7
20260507021503 14 132 1.6 6.4 0.00 0.00 0.00 59 1006.7
20260507021003 14 121 1.6 3.2 0.00 0.00 0.00 58 1006.7
20260507020503 14 136 0.0 6.4 0.00 0.00 0.00 59 1006.6
20260507020004 14 130 0.0 6.4 0.00 0.00 0.00 58 1006.5
20260507015503 14 114 1.6 6.4 0.00 0.00 0.00 58 1006.7
20260507015003 14 134 3.2 6.4 0.00 0.00 0.00 58 1006.8
20260507014503 14 122 1.6 6.4 0.00 0.00 0.00 58 1006.7
20260507014003 14 108 1.6 6.4 0.00 0.00 0.00 58 1006.8
20260507013503 14 126 3.2 6.4 0.00 0.00 0.00 57 1006.6
20260507013004 14 150 3.2 9.7 0.00 0.00 0.00 57 1006.7
20260507012503 14 148 3.2 9.7 0.00 0.00 0.00 58 1006.6
20260507012003 14 124 1.6 6.4 0.00 0.00 0.00 58 1006.9
20260507011504 14 114 3.2 6.4 0.00 0.00 0.00 58 1007.0
20260507011003 14 150 3.2 9.7 0.00 0.00 0.00 57 1006.9
20260507010503 14 156 1.6 9.7 0.00 0.00 0.00 57 1006.9
20260507010004 14 171 3.2 11.3 0.00 0.00 0.00 58 1006.9
20260507005503 14 175 3.2 11.3 0.00 0.00 0.00 58 1006.9
20260507005003 14 149 4.8 11.3 0.00 0.00 0.00 58 1007.0
20260507004504 14 142 3.2 11.3 0.00 0.00 0.00 58 1006.8
20260507004003 14 136 3.2 9.7 0.00 0.00 0.00 58 1006.8
20260507003504 14 129 3.2 11.3 0.00 0.00 0.00 58 1007.1
20260507003003 14 134 3.2 11.3 0.00 0.00 0.00 58 1007.0
20260507002503 14 154 6.4 14.5 0.00 0.00 0.00 57 1007.0
20260507002003 14 163 3.2 14.5 0.00 0.00 0.00 56 1007.2
20260507001503 14 151 3.2 11.3 0.00 0.00 0.00 55 1007.1
20260507001004 14 112 4.8 11.3 0.00 0.00 0.00 54 1007.0
20260507000503 14 136 4.8 12.9 0.00 0.00 0.00 52 1007.1
20260507000004 14 171 3.2 12.9 0.00 0.00 0.00 52 1007.2
20260506235504 14 179 6.4 12.9 0.00 0.00 0.00 52 1007.1
20260506235003 15 177 4.8 12.9 0.00 0.00 0.00 52 1007.1
20260506234504 15 178 4.8 17.7 0.00 0.00 0.00 51 1007.1
20260506234003 15 196 6.4 17.7 0.00 0.00 0.00 50 1007.4
20260506233503 15 193 9.7 17.7 0.00 0.00 0.00 49 1007.3
20260506233003 15 181 6.4 17.7 0.00 0.00 0.00 48 1007.1
20260506232503 15 138 11.3 17.7 0.00 0.00 0.00 46 1007.1
20260506232003 16 102 4.8 6.4 0.00 0.00 0.00 44 1006.8
20260506231504 16 103 6.4 6.4 0.00 0.00 0.00 44 1007.0
20260506231004 16 98 3.2 6.4 0.00 0.00 0.00 44 1006.8
20260506230503 16 94 4.8 6.4 0.00 0.00 0.00 43 1006.7
20260506230004 16 98 6.4 6.4 0.00 0.00 0.00 43 1006.7
20260506225504 16 96 4.8 6.4 0.00 0.00 0.00 42 1006.7
20260506225003 16 94 3.2 6.4 0.00 0.00 0.00 42 1006.8
20260506224503 16 95 6.4 6.4 0.00 0.00 0.00 42 1006.5
20260506224003 16 91 3.2 6.4 0.00 0.00 0.00 42 1006.6
20260506223504 16 93 3.2 6.4 0.00 0.00 0.00 42 1006.7
20260506223003 16 94 3.2 6.4 0.00 0.00 0.00 42 1006.5
20260506222503 17 92 3.2 6.4 0.00 0.00 0.00 41 1006.6
20260506222004 17 95 3.2 6.4 0.00 0.00 0.00 41 1006.7
20260506221504 17 96 3.2 6.4 0.00 0.00 0.00 41 1006.6
20260506221004 17 92 4.8 6.4 0.00 0.00 0.00 41 1006.6
20260506220503 17 94 1.6 6.4 0.00 0.00 0.00 42 1006.5
20260506220007 16 92 3.2 6.4 0.00 0.00 0.00 42 1006.7
20260506215503 16 92 3.2 6.4 0.00 0.00 0.00 41 1006.8
20260506215004 16 102 3.2 6.4 0.00 0.00 0.00 41 1006.6
20260506214504 16 97 3.2 6.4 0.00 0.00 0.00 41 1006.6
20260506214003 16 93 3.2 6.4 0.00 0.00 0.00 41 1006.6
20260506213504 16 96 4.8 6.4 0.00 0.00 0.00 41 1006.7
20260506213004 16 94 6.4 6.4 0.00 0.00 0.00 41 1006.7
20260506212503 16 94 4.8 9.7 0.00 0.00 0.00 42 1006.7
20260506212004 16 94 4.8 9.7 0.00 0.00 0.00 42 1006.7
20260506211503 16 94 4.8 9.7 0.00 0.00 0.00 42 1006.7
20260506211004 16 99 4.8 6.4 0.00 0.00 0.00 42 1006.6
20260506210503 16 102 4.8 6.4 0.00 0.00 0.00 41 1006.7
20260506210004 16 98 4.8 9.7 0.00 0.00 0.00 41 1006.6
20260506205504 16 90 4.8 9.7 0.00 0.00 0.00 41 1006.6
20260506205004 16 91 4.8 9.7 0.00 0.00 0.00 41 1006.5
20260506204503 16 98 4.8 9.7 0.00 0.00 0.00 41 1006.4
20260506204004 16 96 4.8 9.7 0.00 0.00 0.00 41 1006.3
20260506203503 16 98 3.2 6.4 0.00 0.00 0.00 41 1006.3
20260506203003 16 101 3.2 6.4 0.00 0.00 0.00 41 1006.4
20260506202504 16 97 4.8 6.4 0.00 0.00 0.00 40 1006.3
20260506202003 16 100 3.2 6.4 0.00 0.00 0.00 41 1006.1
20260506201503 17 104 3.2 6.4 0.00 0.00 0.00 40 1006.2
20260506201001 17 109 3.2 6.4 0.00 0.00 0.00 40 1006.3
20260506200501 17 105 3.2 6.4 0.00 0.00 0.00 39 1006.1
20260506200002 17 104 4.8 6.4 0.00 0.00 0.00 38 1006.1
20260506195502 17 107 3.2 6.4 0.00 0.00 0.00 37 1005.9
20260506195001 17 114 4.8 6.4 0.00 0.00 0.00 37 1005.9
20260506194501 18 143 3.2 3.2 0.00 0.00 0.00 35 1006.1
20260506194001 18 166 1.6 3.2 0.00 0.00 0.00 33 1005.7
20260506193501 18 184 1.6 6.4 0.00 0.00 0.00 33 1005.8
20260506193001 18 193 1.6 6.4 0.00 0.00 0.00 32 1005.6
20260506192501 18 205 3.2 6.4 0.00 0.00 0.00 32 1005.7
20260506192001 18 218 1.6 6.4 0.00 0.00 0.00 31 1005.9
20260506191501 19 217 3.2 6.4 0.00 0.00 0.00 31 1005.7
20260506191001 19 212 3.2 6.4 0.00 0.00 0.00 30 1005.6
20260506190502 19 223 3.2 6.4 0.00 0.00 0.00 29 1005.6
20260506190002 20 234 3.2 6.4 0.00 0.00 0.00 28 1005.6
20260506185501 20 237 3.2 6.4 0.00 0.00 0.00 27 1005.6
20260506185001 20 235 3.2 6.4 0.00 0.00 0.00 27 1005.6
20260506184502 20 228 4.8 9.7 0.00 0.00 0.00 27 1005.5
20260506184002 20 219 3.2 9.7 0.00 0.00 0.00 28 1005.8
20260506183503 20 214 4.8 9.7 0.00 0.00 0.00 28 1005.5
20260506183002 20 211 6.4 9.7 0.00 0.00 0.00 27 1005.5
20260506182502 20 211 3.2 11.3 0.00 0.00 0.00 28 1005.5
20260506182001 20 209 8.0 11.3 0.00 0.00 0.00 28 1005.6
20260506181502 21 192 3.2 9.7 0.00 0.00 0.00 29 1005.6
20260506181002 20 212 3.2 11.3 0.00 0.00 0.00 29 1005.5
20260506180502 20 234 6.4 11.3 0.00 0.00 0.00 29 1005.5
20260506180002 21 219 3.2 11.3 0.00 0.00 0.00 28 1005.7
20260506175502 20 204 6.4 11.3 0.00 0.00 0.00 27 1005.7
20260506175001 20 218 4.8 11.3 0.00 0.00 0.00 29 1005.7
20260506174502 20 235 6.4 11.3 0.00 0.00 0.00 31 1005.8
20260506174001 20 243 6.4 11.3 0.00 0.00 0.00 32 1005.9
20260506173501 20 238 4.8 14.5 0.00 0.00 0.00 32 1005.8
20260506173002 20 236 3.2 14.5 0.00 0.00 0.00 32 1005.7
20260506172503 20 245 11.3 14.5 0.00 0.00 0.00 31 1005.8
20260506172002 20 235 4.8 11.3 0.00 0.00 0.00 31 1006.0
20260506171502 20 218 6.4 14.5 0.00 0.00 0.00 31 1006.0
20260506171001 20 226 4.8 14.5 0.00 0.00 0.00 32 1005.9
20260506170502 20 230 3.2 12.9 0.00 0.00 0.00 32 1005.8
20260506170002 21 227 8.0 12.9 0.00 0.00 0.00 31 1006.1
20260506165501 21 221 3.2 14.5 0.00 0.00 0.00 31 1006.0
20260506165001 21 225 3.2 14.5 0.00 0.00 0.00 31 1005.9
20260506164502 21 248 6.4 14.5 0.00 0.00 0.00 31 1005.9
20260506164001 21 247 6.4 17.7 0.00 0.00 0.00 30 1005.9
20260506163501 21 253 4.8 17.7 0.00 0.00 0.00 31 1006.1
20260506163002 20 264 8.0 17.7 0.00 0.00 0.00 32 1006.1
20260506162501 20 261 6.4 17.7 0.00 0.00 0.00 32 1006.0
20260506162002 21 251 6.4 12.9 0.00 0.00 0.00 32 1006.0
20260506161501 20 256 6.4 14.5 0.00 0.00 0.00 32 1006.0
20260506161001 21 255 6.4 17.7 0.00 0.00 0.00 31 1006.1
20260506160502 21 242 6.4 17.7 0.00 0.00 0.00 32 1006.0
20260506160001 20 251 8.0 14.5 0.00 0.00 0.00 32 1006.0
20260506155501 20 270 8.0 17.7 0.00 0.00 0.00 32 1006.1
20260506155002 21 258 3.2 17.7 0.00 0.00 0.00 32 1006.1
20260506154501 21 242 6.4 17.7 0.00 0.00 0.00 32 1006.2
20260506154001 22 259 6.4 14.5 0.00 0.00 0.00 31 1006.2
20260506153502 21 263 4.8 14.5 0.00 0.00 0.00 31 1006.1
20260506153001 21 257 3.2 17.7 0.00 0.00 0.00 32 1006.1
20260506152501 20 246 11.3 17.7 0.00 0.00 0.00 32 1006.1
20260506152003 20 223 4.8 14.5 0.00 0.00 0.00 32 1006.2
20260506151502 20 210 9.7 14.5 0.00 0.00 0.00 32 1006.3
20260506151001 20 233 6.4 14.5 0.00 0.00 0.00 32 1006.3